星链-1577 (STARLINK-1577 )

导读 | 星芒AI

STARLINK-1577 是 SpaceX Starlink 卫星互联网项目中的一颗低轨道通信卫星。它属于 Starlink 任务中发射的多个批次之一,旨在为全球用户提供高速互联网服务。该卫星运行在约 550 公里的轨道高度,采用先进的推进和通信技术,支持宽带数据传输。作为 Starlink 卫星群的一部分,它有助于减少网络延迟并扩大覆盖范围,特别是在偏远和网络基础设施薄弱的地区。

基本信息
目录编号:
46063
目录名称:
STARLINK-1577
国际标识:
2020-055AN
轨道中心:
EARTH
卫星名称:
星链-1577
卫星全名:
星链-1577 (STARLINK-1577 )
卫星状态:
在轨 (已飞行1957 天)
发射日期:
2020-08-07 UTC
国别 :
美国 (US)
星等 :
--
轨道信息
数据来源 国际轨道数据
星历时间: 2025-12-15T00:25:11+0800
1天前
查看轨道信息
半长轴: 6925.302km
偏心率: 0.0001142
轨道倾角: 53.053°
近地点辐角 86.366°
升交点赤经 138.221°
平近点角 273.746°
近地点: 546.376km
远地点: 547.958km
周期: 95.591分钟
每日圈数: 15.064153
详细信息
固有亮度:
5
最大亮度:
2.5
卫星平台:
Starlink V1.0
覆盖范围:
全球
运营商:
太空探索技术公司
运营商所在国:
美国
制造商(研发单位):
太空探索技术公司
制造商所在国:
美国
使用方式:
暂无
卫星简介
星链(Starlink)计划是由太空探索技术公司(SpaceX)提出的一个巨型低轨卫星互联网星座项目,计划在2019年至2024年间在太空搭建由约1.2万颗卫星组成的“星链”网络,其中1584颗将部署在地球上空550千米处的近地轨道,并从2020年开始工作。该卫星仍在工作。
2D轨道图
3D轨道图
轨道高度分析图
轨道倾角分析图
轨道综合分析图
查看轨道综合分析图